Location: Limoges
(45.8354°N, 1.2645°E)
Time: 18:14:47
(UTC+02:00)

Vanguard 2 Rocket - Pass Details

Date: 27 February 2024
Orbit: 555 x 3307 km, 32.9° (Epoch: 23 April)

Event Time Altitude Azimuth Distance (km) Brightness Sun altitude
Rises 21:20:53 0° 271° (W) 6,161 12.2 -28.8°
Reaches altitude 10° 21:26:10 10° 258° (WSW) 5,548 11.5 -29.7°
Maximum altitude 21:37:23 21° 218° (SW) 5,209 10.8 -31.5°
Drops below altitude 10° 21:50:01 10° 178° (S) 6,242 10.9 -33.5°
Enters shadow 21:54:03 - 170° (S) 6,755 11.0 -34.1°
